RH
62 62 68 78 79 84 81 84 84 82 82 89 94 94 96 95 93 94 95 94 92 86 84 84 83 80 81
67 67 70 72 87 89 76 74 85 78 86 86 88 91 92 96 95 94 94 92 92 88 84 82 82 81 81
72 68 72 73 83 84 86 85 76 82 80 80 84 94 91 93 96 95 92 92 92 90 86 84 84 83 83
69 72 74 69 80 92 91 89 87 72 76 86 87 95 93 94 96 96 98 96 94 93 91 88 86 85 82
71 72 76 74 83 86 90 90 90 85 91 86 90 96 98 99 98 99 98 97 95 95 93 90 88 87 84
75 75 70 70 71 84 94 93 94 91 94 89 87 92 92 94 95 98 98 97 97 95 92 92 90 88 86
77 72 69 69 72 88 85 90 98 95 98 93 90 92 89 90 95 98 98 97 97 97 96 92 90 89 87
90 85 74 69 70 78 92 96 89 89 96 98 92 92 87 89 95 98 98 98 96 95 94 92 90 90 91
64 63 60 60 65 72 83 88 86 83 94 97 93 90 88 91 92 98 98 97 95 95 93 92 92 93 94
60 60 59 64 67 70 78 91 91 96 89 99 99 99 99 98 94 97 97 98 96 96 94 93 94 91 91
69 67 66 65 68 67 69 79 89 93 84 92 100 99 100 99 97 94 96 96 95 97 97 95 94 90 94
76 74 74 73 73 70 70 76 80 83 80 92 100 100 100 99 98 96 86 92 94 95 95 94 96 96 88
86 82 78 77 75 84 83 77 79 82 79 92 98 100 100 100 99 98 97 96 96 95 96 96 95 96 97
84 82 85 95 92 90 93 95 98 97 96 94 97 98 100 100 100 98 96 100 97 98 96 96 97 95 94
95 88 88 92 91 92 94 95 94 90 93 99 99 97 98 100 99 97 97 99 96 98 99 98 98 97 97
95 92 96 87 90 96 96 94 93 89 89 95 100 100 99 98 94 97 95 98 96 98 100 100 99 97 96
92 91 87 86 88 94 94 95 97 94 90 92 98 98 97 97 96 93 96 96 100 100 100 100 99 98 96
Wind_Speed
12 11 13 13 11 10 11 13 11 24 25 23 25 28 26 28 30 31 28 29 28 31 31 29 30 29 26
13 11 13 12 12 11 9 9 9 22 19 26 26 33 32 28 30 31 32 33 31 30 30 30 29 28 27
13 10 11 9 9 11 11 10 8 15 19 26 27 30 31 33 33 31 34 34 32 31 28 28 28 28 28
13 10 10 12 8 8 9 5 8 9 14 16 27 26 30 32 32 34 28 32 31 31 29 28 27 27 27
12 9 9 9 8 5 7 6 5 7 8 8 13 10 14 23 22 28 30 31 35 32 31 29 28 27 26
10 12 12 9 8 7 7 7 4 1 8 11 9 12 10 14 25 30 33 32 31 33 33 33 29 29 28
16 15 14 9 9 7 8 9 4 4 6 10 7 12 7 11 27 29 30 33 32 32 32 30 31 30 29
16 16 16 14 13 7 7 6 6 5 5 8 5 11 9 9 22 32 33 32 31 31 31 33 33 32 30
27 27 27 27 22 11 8 7 8 7 7 5 3 12 9 10 11 31 34 35 36 34 34 34 32 31 24
13 16 19 18 25 18 12 9 7 6 6 5 1 4 5 3 7 7 17 34 36 36 35 35 33 18 17
11 10 11 12 10 11 13 11 8 8 6 3 2 3 1 6 5 5 7 15 19 22 34 35 34 30 16
10 10 10 9 9 9 10 10 9 10 7 5 4 2 2 5 4 5 10 11 16 17 18 27 34 36 32
12 10 9 7 7 5 5 9 9 9 8 7 4 3 3 3 6 5 6 7 11 14 14 16 18 16 20
10 8 7 6 7 6 7 6 5 3 5 6 6 4 4 5 6 7 5 3 8 9 12 13 14 16 17
7 7 6 7 8 7 6 4 6 6 5 4 4 8 7 7 5 7 8 5 6 10 7 10 11 14 14
5 4 4 4 5 4 5 6 7 7 7 5 6 5 4 7 15 8 8 8 5 7 6 8 10 10 12
5 5 6 6 7 5 6 7 7 7 7 3 2 6 7 10 3 22 10 7 2 5 3 3 7 10 11
Wind_Direction
284 294 295 300 306 301 309 311 308 309 310 307 248 210 204 202 202 200 194 191 191 195 194 193 194 198 199
280 289 289 286 297 299 289 288 295 297 299 307 299 227 210 201 203 200 193 193 188 193 193 193 194 196 199
281 285 287 280 280 284 300 292 275 292 323 311 302 242 203 202 201 197 200 190 187 187 189 191 191 192 196
271 276 281 288 276 293 297 298 294 321 302 321 293 243 199 199 196 194 197 186 182 184 184 189 189 190 193
272 272 277 271 267 277 265 265 303 304 325 339 323 261 195 194 199 192 187 191 182 183 182 192 190 188 191
262 263 266 275 286 302 320 307 328 13 342 307 314 307 299 200 199 197 193 191 191 188 188 190 188 189 191
256 260 269 271 280 284 282 283 273 326 347 299 319 293 290 276 198 193 192 191 191 190 188 195 188 187 188
253 255 260 271 268 265 274 280 275 264 240 266 296 284 301 291 238 188 190 192 194 192 193 192 193 189 185
256 261 263 265 270 283 260 265 276 269 215 251 330 285 290 285 256 187 188 193 194 194 195 195 192 190 193
257 262 261 255 258 257 263 247 247 269 223 203 262 331 333 294 8 214 186 191 195 194 196 196 188 191 201
248 250 247 248 245 233 244 247 249 253 260 334 244 292 14 307 331 359 318 198 195 196 196 196 192 196 196
239 241 240 239 240 236 232 228 236 251 280 221 245 89 338 311 290 326 327 320 203 192 195 199 196 199 201
234 241 241 236 250 254 256 233 227 229 241 266 232 167 198 255 285 308 330 332 297 191 187 194 198 201 204
235 234 228 225 232 235 239 218 213 216 217 230 236 217 228 227 262 287 283 296 335 259 177 190 191 197 200
237 240 229 214 233 223 226 186 211 232 218 208 221 222 226 223 253 254 277 276 284 306 209 178 187 191 195
320 309 297 260 276 272 261 245 227 214 222 192 195 211 223 228 213 246 254 264 287 292 301 192 182 189 188
296 294 285 269 262 257 250 263 272 257 238 195 192 232 250 250 254 210 233 243 268 294 293 333 202 190 181